Location: Baldovin
(46.2000°N, 22.7167°E)
Time: 21:08:01
(UTC+00:00)

Daily predictions for brighter satellites

Satellite Brightness Start Highest point End
(mag) Time Altitude Azimuth Time Altitude Azimuth Time Altitude Azimuth
NOSS 2-3 (C) 4.1 15:50:37 10° S 15:54:18 36° ESE 15:58:27 10° NE
Cosmos 1953 2.3 15:50:58 10° S 15:55:01 81° E 15:59:06 10° N
CORIOLIS 4.2 15:53:22 10° SSE 15:58:43 87° ENE 16:04:06 10° NNW
Lacrosse 4 Rocket 2.0 15:56:38 10° NNW 16:00:43 39° NE 16:04:50 10° ESE
SL-16 R/B 2.5 15:56:51 10° S 16:02:15 47° ESE 16:07:40 10° NE
Cosmos 2251 Rocket 4.3 15:58:24 10° N 16:02:59 29° ENE 16:07:31 10° ESE
CZ-2C R/B 4.1 15:57:19 10° S 16:03:03 59° W 16:08:41 10° NNW
Cosmos 1821 Rocket 4.1 15:56:41 10° S 16:03:05 88° E 16:09:28 10° N
Cosmos 1544 Rocket 4.0 16:01:39 10° SSE 16:05:51 42° E 16:10:05 10° NNE
NOSS 2 (A) 4.2 16:03:10 10° NNW 16:05:57 59° NE 16:08:22 10° SE
Cosmos 1300 3.1 16:03:22 10° SSE 16:06:56 40° E 16:10:31 10° NNE
SL-19 R/B 4.5 16:01:33 10° NNE 16:07:04 52° ESE 16:12:29 10° S
BREEZE M DEB (TANK) 4.5 16:07:31 10° W 16:11:34 64° S 16:37:01 10° ESE
Meteor 1-16 Rocket 4.5 16:06:18 10° SSW 16:12:10 81° WNW 16:17:56 10° N
Cosmos 1934 Rocket 4.0 16:06:26 10° S 16:12:22 57° E 16:18:17 10° NNE
Cosmos 2322 Rocket 2.5 16:08:31 10° S 16:13:47 44° ESE 16:19:06 10° NE
Cosmos 2219 Rocket 3.9 16:17:56 10° ESE 16:19:32 12° E 16:19:32 12° E
Iridium 4 Rocket 3.4 16:17:17 10° N 16:21:58 60° E 16:27:04 10° SSE
deb Chang Zheng 4 3.4 16:18:03 10° SSE 16:22:15 81° ENE 16:26:30 10° NNW
Cosmos 2360 Rocket 2.9 16:17:57 10° SSE 16:22:52 32° ESE 16:27:50 10° NE
Cosmos 614 Rocket 4.3 16:18:17 10° N 16:23:07 42° ENE 16:27:58 10° SE
Cosmos 304 Rocket 4.0 16:18:55 10° S 16:23:30 48° ESE 16:28:08 10° NNE
Cosmos 1844 4.4 16:18:30 10° NNW 16:23:49 35° NE 16:29:02 10° ESE
Okean O Rocket 1.6 16:20:38 10° SSE 16:24:53 58° ENE 16:29:11 10° N
NOSS 8 (E) 4.4 16:21:32 10° SW 16:24:57 73° NW 16:27:56 10° NE
Cosmos 839 Rocket 4.2 16:18:12 10° NNW 16:25:57 72° NE 16:32:19 10° SE
CZ-4C R/B 3.6 16:23:01 10° NNE 16:26:01 31° E 16:28:57 10° SSE
ARGOS 3.3 16:22:30 10° SE 16:27:44 53° ENE 16:33:00 10° N
Cosmos 2344 4.3 16:19:16 10° NW 16:28:07 64° NE 16:40:22 10° SE
CZ-4 R/B 2.3 16:27:02 10° SE 16:30:31 29° ENE 16:34:06 10° N
Cosmos 1602 Rocket 3.8 16:26:51 10° N 16:31:01 43° ENE 16:35:07 10° SSE
Meteor 1-4 Rocket 2.8 16:28:43 10° SSE 16:31:59 41° E 16:35:16 10° NNE
Cosmos 2333 Rocket 3.4 16:29:26 10° SE 16:33:21 20° E 16:35:06 17° ENE
Cosmos 405 Rocket 4.4 16:31:57 10° NNW 16:35:42 39° W 16:39:28 10° SSW
FALCON 9 DEB 4.4 16:34:01 10° S 16:36:11 19° SE 16:36:30 19° SE
COSMO-SKYMED 1 2.5 16:33:19 10° NNE 16:37:41 71° ESE 16:41:59 10° S
CZ-4B R/B 3.4 16:33:03 10° SSE 16:38:44 85° WSW 16:44:26 10° NNW
Cosmos 2263 Rocket 3.8 16:35:17 10° NW 16:40:22 37° WSW 16:45:26 10° S
In-Cosmos 22 Rocket 4.2 16:36:22 10° N 16:41:32 50° ENE 16:46:41 10° SSE
Okean 1-7 Rocket 3.9 16:38:02 10° NNW 16:42:27 69° W 16:46:52 10° S
Cosmos 2123 Rocket 4.1 16:36:30 10° N 16:42:50 81° W 16:49:08 10° S
USA 215 3.6 16:36:50 10° NE 16:43:16 63° NNW 16:49:42 10° WSW
NOSS 2-3 (E) 3.6 16:40:24 10° SW 16:44:26 79° NW 16:49:06 10° NE
SL-8 R/B 3.8 16:39:45 10° W 16:44:32 68° N 16:47:27 23° ENE
Feng Yun 1-1 Rocket 4.3 16:39:08 10° SSE 16:44:37 60° ENE 16:50:17 10° N
Spot 2 4.1 16:42:01 10° SSE 16:46:06 55° ENE 16:50:26 10° N
Cosmos 1980 Rocket 4.1 16:42:22 10° WSW 16:47:12 28° NW 16:52:04 10° N
Cosmos 332 Rocket 3.7 16:42:45 10° SSW 16:47:39 81° ESE 16:52:32 10° NNE
CZ-2C R/B 2.6 16:42:11 10° NNE 16:47:47 74° ESE 16:53:15 10° S
USA 229 DEB 3.6 16:43:16 10° SSW 16:49:33 64° ESE 16:56:10 10° NE
USA 229 3.6 16:43:24 10° SSW 16:49:39 64° ESE 16:56:13 11° NE
Okean-O 3.5 16:48:59 25° E 16:50:02 28° ENE 16:53:49 10° N
Meteor 1-11 4.4 16:44:34 10° NNW 16:50:11 76° W 16:55:50 10° S
Cosmos 1825 Rocket 4.2 16:49:21 10° N 16:53:15 31° ENE 16:54:06 29° E
OE (NEXTSAT) 4.2 16:50:46 10° W 16:54:12 82° S 16:55:18 40° E
H-2A R/B 2.4 16:51:43 10° SSE 16:55:56 65° ENE 17:00:00 10° N
Cosmos 2228 3.4 16:55:14 10° SSE 16:59:19 40° E 17:03:26 10° NNE
CSL-04 Rocket 4.4 16:57:22 25° ESE 16:59:30 33° ENE 17:04:26 10° N
Cosmos 1892 2.5 16:56:24 10° N 17:00:09 62° E 17:03:52 10° SSE
Cosmos 1758 Rocket 3.5 16:56:26 10° N 17:00:42 58° ENE 17:04:59 10° SSE
FALCON 9 DEB 3.7 17:00:27 10° SSW 17:02:45 34° SSE 17:02:45 34° SSE
ATLAS 3B R/B 4.5 16:59:55 10° WNW 17:05:07 23° NNW 17:10:31 10° NNE
Cosmos 1626 Rocket 4.2 17:01:11 10° NNW 17:05:26 57° W 17:09:39 10° S
Cosmos 1408 2.3 17:03:55 10° N 17:07:30 68° E 17:09:17 27° SSE
Cosmos 2100 Rocket 4.4 17:02:12 10° SSE 17:07:59 39° E 17:13:49 10° NNE
Cosmos 220 Rocket 4.0 17:05:41 10° SSW 17:10:06 83° WNW 17:14:32 10° NNE
H-2A R/B 3.4 17:05:04 10° S 17:10:13 44° W 17:15:27 10° NNW
Meteor 2-10 Rocket 3.6 17:05:56 10° S 17:11:29 87° WNW 17:16:50 10° N
SL-08 RB Rocket 3.7 17:07:11 10° SSE 17:11:45 88° WSW 17:16:24 10° NNW
NOSS 3-1 (A) 3.2 17:06:43 10° SW 17:12:01 89° SE 17:17:05 16° NE
Cosmos 1844 Rocket 2.6 17:07:05 10° NNW 17:12:42 88° ENE 17:17:53 12° SSE
X-37B 2.6 17:13:32 10° W 17:16:32 26° SSW 17:17:40 21° S
USA 267 4.0 17:11:31 10° SSE 17:17:49 50° SW 17:24:09 10° WNW
Cosmos 2173 Rocket 4.2 17:12:46 10° SSE 17:18:34 44° E 17:24:28 10° NNE
HJ-1C 3.5 17:19:13 57° N 17:19:13 57° N 17:21:55 10° N
Cosmos 2237 4.4 17:14:29 10° SSW 17:20:12 75° WNW 17:25:58 10° NNE
DMSP B5D2-2 4.0 17:17:23 10° NNE 17:22:38 65° ESE 17:27:48 10° S
CENTAUR R/B 4.2 17:16:30 10° NW 17:22:50 27° NNE 17:25:49 22° NE
MOS 1-B Rocket 4.4 17:19:07 10° N 17:25:34 63° WNW 17:31:15 10° SSW
Tiangong 3.0 17:25:41 10° WSW 17:28:03 24° SSW 17:28:03 24° SSW
YAOGAN 1 2.8 17:24:48 10° S 17:29:05 69° WSW 17:33:26 10° NNW
H-2A R/B 1.9 17:30:43 65° SE 17:30:43 65° SE 17:34:31 10° S
BREEZE-M R/B 2.7 17:28:20 10° WNW 17:31:44 78° SSW 17:32:42 53° SE
Cosmos 1455 4.0 17:30:31 10° S 17:31:46 20° S 17:31:46 20° S
NOSS 3-1 (C) 4.3 17:30:59 10° WSW 17:36:09 43° NW 17:41:23 14° NNE
COSMOS 2428 4.0 17:32:22 10° S 17:34:44 23° SSE 17:34:44 23° SSE
ATLAS 5 CENTAUR R/B 4.1 17:35:23 10° NW 17:37:44 14° NNW 17:40:17 10° NNE
Cosmos 44 3.9 17:32:30 10° SW 17:37:52 63° NW 17:40:55 26° NNE
Lacrosse 4 Rocket 3.6 17:35:37 10° NW 17:39:13 26° WSW 17:42:51 10° SSW
Cosmos 2278 Rocket 3.4 17:34:43 10° N 17:38:37 27° NNE 17:38:37 27° NNE
Cosmos 1140 Rocket 3.3 17:35:00 10° NNW 17:40:13 81° ENE 17:41:11 59° SE
Cosmos 1606 Rocket 3.8 17:36:37 10° S 17:45:48 - N 17:40:12 57° S
Cosmos 407 Rocket 3.4 17:36:44 10° NNW 17:42:07 87° ENE 17:43:30 52° SSE
Cosmos 1825 3.4 17:39:18 10° N 17:41:33 34° NNW 17:41:33 34° NNW
Cosmos 2333 4.0 17:38:15 10° SSW 17:43:51 79° ESE 17:45:49 43° NE
SL-16 R/B 3.8 17:41:31 10° WSW 17:46:32 32° NW 17:51:37 10° NNE
Cosmos 1023 Rocket 4.5 17:45:46 10° NNW 17:50:59 81° WSW 17:51:59 59° S
Cosmos 2322 Rocket 3.7 17:52:56 10° WSW 17:57:58 33° NW 18:03:03 10° NNE
Cosmos 2219 Rocket 2.5 17:57:07 10° SSW 18:01:21 53° S 18:01:21 53° S
CZ-4 R/B 3.4 18:02:02 10° SSW 18:05:28 27° W 18:09:00 10° NW
Cosmos 2360 Rocket 3.2 18:01:19 10° SW 18:06:42 44° NW 18:11:27 13° NNE
MetOp-A 4.5 18:05:21 39° SSW 18:07:15 62° WSW 18:12:35 10° NNW
Cosmos 2346 Rocket 4.5 18:07:14 10° N 18:13:32 81° W 18:14:41 61° SSW
Cosmos 2333 Rocket 2.4 18:11:21 10° SW 18:17:00 70° WNW 18:17:13 69° NW
USA 215 4.3 18:24:02 32° NNE 18:25:38 36° N 18:31:29 10° WNW
Okean-O 4.2 18:26:34 32° W 18:26:34 32° W 18:30:25 10° NNW
Cosmos 1943 Rocket 4.4 18:27:59 10° N 18:29:08 14° N 18:29:08 14° N
CENTAUR R/B 3.7 19:07:13 10° NW 19:12:59 48° N 19:12:59 48° N
Cosmos 2278 Rocket 4.3 19:18:30 10° NW 19:20:28 22° NW 19:20:28 22° NW
